Theta_e
304 304 304 304 304 304 304 305 305 305 304 303 303 303 302 303 303 301 299 300 297 296 297 300 301 298 298 298 293 296 295 295 297 294 292 292 291 294 293 295 295 295 294 292 293 290 288 300 300 295 300 304 304 305
302 302 303 303 303 304 304 303 303 304 303 303 302 302 302 302 302 300 296 300 300 294 294 300 302 303 302 301 298 298 296 296 299 296 295 295 292 293 292 290 296 292 297 296 297 297 301 301 300 303 303 303 304 304
302 302 302 302 302 302 302 302 302 303 303 301 301 302 301 302 301 302 299 298 297 293 292 294 293 299 301 302 304 291 295 300 299 302 299 296 293 295 291 292 293 296 298 295 294 297 299 300 302 302 303 303 306 306
301 301 301 302 302 302 303 302 301 302 301 301 301 302 301 301 300 301 298 298 297 293 287 291 300 298 302 303 302 302 300 302 301 302 298 295 292 297 293 294 293 295 297 294 295 298 300 301 302 302 303 304 304 306
301 301 301 301 301 302 302 301 301 300 301 301 301 302 302 301 301 300 299 299 299 293 287 289 294 297 299 299 300 301 300 298 297 296 296 294 297 295 297 296 293 297 296 293 292 299 299 300 303 304 303 303 304 305
301 301 301 301 301 300 301 301 301 300 301 300 301 301 302 302 299 296 291 299 298 298 291 286 296 297 300 298 296 296 296 296 296 295 296 298 299 298 293 291 297 300 302 303 299 302 302 303 304 305 303 305 306 305
301 300 300 301 301 301 301 300 300 301 301 301 301 301 301 303 297 292 290 298 300 299 293 288 289 296 297 297 297 296 297 297 297 296 296 297 298 298 295 291 297 300 301 301 302 302 299 302 302 304 305 305 305 305
300 300 300 300 300 301 300 300 300 301 300 300 300 300 300 300 298 294 297 300 300 296 295 286 287 291 297 295 294 298 294 296 297 295 297 295 296 297 292 297 300 301 301 302 302 303 303 304 304 305 303 303 303 303
300 300 300 300 300 300 300 300 299 300 300 299 300 300 298 295 291 293 299 301 300 295 289 286 284 285 296 293 295 297 298 292 298 294 295 296 294 291 295 298 299 301 300 301 302 303 303 302 303 302 302 302 301 301
300 299 299 298 299 299 300 299 300 300 299 300 298 292 288 292 300 302 296 291 290 291 292 286 291 288 292 292 291 291 295 295 289 294 298 294 292 299 301 302 302 302 303 303 300 300 301 300 299 299 299 301 301 301
299 299 299 299 299 299 299 299 299 298 298 295 290 289 295 299 297 293 288 286 286 283 287 287 288 286 293 287 287 292 289 293 286 291 291 289 291 296 301 300 302 303 303 302 302 301 301 300 298 298 298 299 299 300
299 299 299 299 298 298 298 299 299 297 295 293 294 295 295 292 289 286 284 286 283 282 288 287 288 289 292 293 289 290 288 291 283 294 289 284 294 298 301 301 301 303 303 302 300 298 299 298 298 298 298 298 299 299
299 299 298 299 298 298 299 299 299 298 298 296 292 288 288 286 282 280 279 282 283 288 290 290 289 290 291 291 290 289 286 286 294 288 287 291 296 298 300 301 301 301 300 299 299 299 298 298 299 298 296 296 297 298
298 298 298 299 299 298 299 299 299 298 293 287 285 279 281 280 282 285 286 287 291 293 291 292 291 290 292 288 290 285 290 291 285 283 285 294 297 299 300 300 300 299 299 298 298 298 298 298 298 297 296 296 296 297
297 297 297 297 298 299 299 299 299 296 287 285 285 278 281 285 286 289 290 290 293 295 293 291 292 292 288 285 287 286 285 283 286 286 292 297 299 300 300 300 301 301 300 299 299 298 298 298 297 296 297 297 297 297
297 297 296 298 298 299 299 298 296 294 289 285 285 282 285 284 284 286 288 289 295 293 294 292 288 285 285 285 284 283 284 283 289 294 297 299 300 301 301 302 302 301 301 300 299 298 298 297 297 297 298 297 297 298
295 292 295 297 298 299 297 293 291 286 285 283 282 286 286 285 285 287 289 290 296 292 286 288 284 282 288 285 284 289 287 291 295 296 298 298 298 300 301 301 301 301 301 301 299 299 298 298 299 298 296 297 297 297
293 295 297 297 297 296 293 292 287 285 281 284 283 285 286 288 286 288 291 292 292 290 290 285 290 284 283 282 284 289 293 295 297 296 296 297 299 300 300 300 300 300 300 300 299 300 299 298 298 294 295 297 298 298
295 296 297 298 296 292 287 288 288 282 283 285 286 286 286 287 288 289 290 291 292 294 293 290 285 283 285 290 292 293 294 292 294 295 296 297 298 297 298 299 299 300 300 300 300 301 301 299 297 297 296 297 297 297
296 297 297 297 296 289 286 286 289 283 281 285 286 285 286 286 288 289 289 289 288 288 285 285 285 288 290 293 295 298 296 296 294 292 293 295 298 298 298 298 299 300 301 300 300 295 300 299 298 298 297 297 298 295
295 296 296 296 292 291 288 287 285 285 285 284 287 286 286 287 286 286 286 289 286 285 284 287 288 291 294 296 296 296 295 296 294 293 293 293 297 298 298 300 300 301 300 301 300 299 297 297 298 299 298 297 299 295
294 296 293 293 288 287 286 288 285 287 285 286 287 287 285 284 285 286 289 285 285 287 288 289 290 291 291 292 294 296 296 296 296 294 291 293 293 297 299 300 299 299 300 301 301 299 299 298 297 298 296 296 296 295
296 294 290 289 285 284 282 289 284 285 282 284 287 284 285 285 287 288 285 287 288 291 292 292 292 294 293 294 295 295 295 294 294 295 296 297 298 298 298 299 299 299 300 302 301 298 298 292 294 295 296 297 295 293
295 289 286 283 283 281 286 284 286 284 286 285 284 283 285 287 287 285 283 287 291 294 294 293 293 293 294 294 294 294 296 298 298 299 300 298 298 299 300 299 300 301 302 303 299 297 295 294 292 296 295 294 294 292
285 282 284 281 286 283 282 283 284 284 283 285 284 285 286 285 285 285 285 287 290 291 293 294 294 295 294 295 297 297 299 299 298 297 300 300 300 300 299 300 301 303 304 301 296 297 294 293 295 295 294 293 293 292
278 282 281 282 283 281 283 281 284 284 285 285 286 289 290 288 284 283 285 286 287 289 290 291 292 291 292 295 294 295 298 302 301 299 301 301 301 300 301 300 300 301 303 299 298 296 294 293 295 294 293 292 288 292
278 281 284 287 285 286 285 287 288 285 285 284 287 286 286 282 282 285 287 289 288 290 293 294 293 293 293 295 297 298 300 300 301 302 303 304 304 304 304 301 299 301 300 297 297 296 295 294 294 294 293 293 294 293
284 285 282 286 286 288 284 286 286 286 287 290 288 283 282 283 282 286 287 293 295 296 296 296 297 296 296 296 299 300 300 301 302 303 305 304 302 300 302 304 303 289 298 298 299 298 296 296 295 294 293 292 293 294
284 287 287 285 287 287 286 286 287 290 292 290 285 284 285 288 291 291 293 295 297 296 293 293 293 296 297 298 299 300 300 298 297 298 297 297 297 296 298 298 297 297 297 295 286 292 296 295 295 295 294 293 294 295
285 289 285 287 286 285 289 293 291 293 294 293 292 291 290 291 293 296 296 295 294 293 294 295 294 293 292 292 293 294 298 298 298 300 299 297 298 298 299 298 298 298 298 297 295 294 286 293 291 295 293 293 293 293
289 289 287 286 286 289 292 295 295 293 293 291 292 291 290 292 294 294 294 294 293 293 292 292 292 293 292 291 291 291 292 296 297 299 300 297 297 299 298 298 298 298 298 296 294 294 293 293 293 293 292 292 292 292
289 288 287 286 289 292 292 291 293 292 292 291 290 292 291 290 288 291 294 294 292 291 289 291 291 291 293 293 294 295 289 296 296 297 299 297 297 298 298 298 298 298 297 295 293 293 293 292 292 292 292 292 293 294
289 290 289 290 289 291 294 294 291 289 290 289 289 291 290 289 287 292 297 296 293 291 291 292 293 293 294 294 293 293 292 296 291 286 287 288 289 292 298 298 298 297 295 293 292 292 292 292 292 292 292 293 293 294
Wind_Speed
12 12 12 11 11 10 10 12 8 8 7 7 6 6 6 5 5 1 0 1 2 3 5 4 3 4 3 2 2 2 2 1 1 4 3 3 4 1 2 1 3 5 7 5 5 5 7 4 3 4 8 8 9 12
12 12 11 10 9 9 8 8 9 8 8 8 7 6 5 5 4 2 1 0 1 3 4 2 5 8 4 6 3 1 2 2 2 2 2 2 2 2 2 3 2 4 3 1 5 1 3 2 4 3 5 11 11 10
12 12 12 11 11 10 10 10 10 9 9 9 8 7 5 5 3 1 1 1 2 3 5 3 4 3 7 11 6 3 2 3 3 2 2 2 4 3 4 4 2 3 2 4 3 2 4 4 2 0 5 9 10 9
11 11 11 12 12 11 11 10 8 9 9 9 10 8 6 5 3 2 1 1 0 1 4 2 3 4 3 3 9 13 3 4 3 1 2 3 3 4 3 2 4 2 4 3 6 11 11 7 5 7 12 11 12 9
11 12 13 13 12 12 11 10 8 8 10 11 11 10 10 6 3 1 2 3 3 3 3 5 8 3 3 6 6 10 8 3 2 3 3 4 1 3 2 2 8 6 8 7 7 5 6 7 9 14 15 15 12 7
9 10 12 13 12 11 11 11 12 11 11 10 10 9 8 8 7 1 3 3 4 3 2 4 4 2 2 2 6 9 6 5 4 4 3 4 3 5 5 5 5 7 7 9 8 4 9 11 13 16 14 11 6 5
10 9 8 10 12 13 12 11 10 12 12 11 10 9 8 7 3 3 2 3 7 3 2 4 4 1 2 1 3 3 6 3 4 3 4 4 4 5 6 13 6 8 9 9 11 7 11 14 8 10 10 10 5 5
10 10 9 8 8 9 9 10 10 7 6 4 3 4 6 3 1 3 4 9 3 1 1 3 4 3 2 1 3 2 4 4 4 3 1 5 3 4 7 12 15 14 14 13 13 10 14 12 9 7 5 4 6 7
11 9 9 6 6 8 9 6 6 8 7 3 5 4 1 1 3 2 3 8 3 1 1 2 3 2 3 2 0 3 2 3 2 4 4 5 6 8 9 13 12 12 10 8 4 5 8 11 12 2 3 4 6 7
7 4 3 4 5 5 7 5 8 7 5 9 2 2 2 3 4 15 3 3 2 1 2 4 2 3 3 2 2 1 1 1 3 3 2 5 7 13 16 11 6 5 7 5 10 12 6 4 5 5 5 6 6 7
11 9 8 7 9 8 6 6 6 5 2 1 2 2 0 3 3 3 4 4 4 4 5 4 6 6 1 3 2 1 1 1 3 2 3 2 4 5 4 3 4 4 3 3 4 4 4 5 7 7 7 7 7 8
10 10 10 8 5 5 5 9 8 4 1 3 1 1 1 2 2 4 5 5 5 5 5 4 4 4 2 1 3 3 2 2 4 2 3 3 3 2 5 7 8 7 7 7 7 7 6 7 7 7 7 8 9 9
11 7 5 6 5 5 5 11 9 7 3 1 1 2 3 2 5 5 8 4 4 4 5 5 4 3 3 3 3 3 5 4 1 4 4 2 2 4 5 6 6 6 6 6 5 4 5 6 6 7 8 8 9 9
6 7 8 6 9 6 11 9 10 8 1 1 3 3 4 4 4 3 1 2 2 2 6 4 3 3 2 4 2 3 2 2 4 4 4 0 2 5 5 4 4 4 4 4 3 3 5 7 7 8 8 8 9 9
6 4 2 3 4 12 9 12 10 4 1 2 3 4 6 3 1 1 0 2 2 3 3 2 2 3 2 2 2 3 4 5 4 2 1 3 2 4 4 1 2 2 1 1 1 4 6 7 7 8 7 7 8 8
4 1 3 7 7 8 8 15 3 1 2 1 3 3 2 2 3 3 3 2 4 3 2 2 2 2 3 2 5 6 4 4 2 1 3 3 3 2 2 4 4 3 3 4 4 3 4 5 6 7 7 7 7 8
6 2 4 5 4 17 14 3 2 2 3 4 3 5 4 3 3 4 4 2 3 3 2 1 5 4 2 4 4 3 2 2 2 2 2 3 4 4 4 5 5 5 5 5 5 4 4 4 4 5 8 8 7 8
0 1 5 14 8 8 1 2 2 3 5 6 4 5 5 4 3 3 5 4 3 2 3 3 2 2 3 4 4 3 2 1 2 3 5 7 7 6 4 7 6 5 6 5 5 5 5 5 5 3 6 8 9 8
2 3 7 17 6 3 2 2 1 3 7 4 5 4 3 3 6 5 4 4 3 1 2 3 3 4 4 3 3 6 8 3 3 5 5 7 6 6 7 6 5 5 5 6 5 4 3 4 5 5 5 6 6 5
5 5 9 11 2 2 3 2 1 3 3 3 3 4 4 5 4 5 7 7 5 3 5 5 6 6 4 3 3 3 2 2 3 6 8 8 5 5 6 5 4 4 4 5 5 6 3 4 3 4 4 4 5 4
3 3 9 3 2 2 1 2 5 3 3 4 3 4 4 3 5 6 7 6 6 5 7 8 10 10 8 8 4 5 7 5 7 6 8 8 7 6 6 4 4 4 4 4 5 5 2 3 3 3 3 4 4 3
2 5 2 2 2 3 3 4 3 1 4 4 4 5 4 6 7 6 6 6 6 8 7 10 11 11 10 13 10 10 11 10 9 7 7 7 7 6 6 5 4 5 5 5 4 5 4 2 1 2 2 2 3 1
5 2 2 2 3 3 4 3 5 4 5 3 3 4 4 4 3 6 5 5 5 6 7 10 13 13 13 13 10 10 9 9 8 9 8 7 7 7 7 8 6 6 5 3 1 1 3 2 3 2 2 1 1 2
1 1 3 3 4 4 2 4 4 4 4 4 4 4 4 3 5 3 3 3 2 2 3 5 5 6 6 7 8 9 8 6 7 6 6 6 6 8 7 7 5 5 4 2 3 1 3 3 2 3 1 1 1 3
2 2 3 4 4 4 4 4 4 4 4 4 4 3 1 2 2 2 3 1 2 2 1 3 3 4 5 5 4 5 5 5 6 8 7 6 6 5 5 4 4 4 3 3 3 4 4 4 3 3 2 2 3 6
4 5 6 4 2 4 3 4 3 2 3 3 2 3 2 1 3 3 3 3 2 2 3 3 3 4 5 5 5 5 4 3 3 6 6 5 5 5 4 3 2 2 3 2 4 6 6 5 4 4 3 3 5 7
3 3 3 3 3 3 4 4 4 3 3 5 3 5 4 5 6 4 4 4 3 3 3 3 4 4 4 3 3 4 4 4 5 4 3 2 1 2 2 3 4 2 2 4 5 7 7 6 5 5 4 3 4 6
2 4 5 1 3 3 3 3 3 4 4 5 3 6 4 5 4 4 3 6 8 7 6 6 3 1 1 3 1 2 1 2 4 4 0 3 4 3 3 1 2 4 4 5 5 5 6 5 5 6 5 5 4 6
4 3 3 6 2 1 2 3 3 3 6 4 4 4 3 3 5 5 6 8 5 5 8 9 8 5 4 4 3 3 3 4 3 8 6 2 2 2 3 5 5 5 6 6 6 5 6 5 6 6 6 4 4 7
4 3 3 3 4 5 5 4 5 5 5 6 5 4 3 3 6 5 6 7 7 8 8 6 6 8 8 7 6 6 4 5 5 3 3 4 4 5 4 5 6 7 6 7 8 7 6 7 6 6 5 4 4 8
4 2 1 2 3 4 4 4 6 6 4 1 1 2 2 2 3 7 7 8 8 8 8 9 8 7 8 8 7 7 6 5 7 7 5 5 3 5 6 5 5 6 6 7 6 5 6 5 5 6 6 6 6 9
2 3 3 3 3 6 5 4 2 3 2 3 3 2 2 2 3 3 7 8 10 10 10 9 9 8 7 7 5 4 4 5 5 4 5 5 4 6 6 5 5 5 6 5 5 5 6 7 5 5 6 7 7 10
2 1 2 3 2 2 1 3 3 2 3 3 4 4 2 2 4 4 3 7 7 8 9 9 7 7 6 7 11 8 7 6 6 5 6 6 6 5 6 5 5 6 6 5 5 5 6 8 6 6 7 8 7 10
Wind_Direction
284 277 272 270 276 276 273 274 260 251 244 256 263 273 294 314 354 69 16 58 316 278 278 229 243 193 151 194 202 121 211 157 127 189 211 190 221 179 263 243 212 197 179 190 199 221 242 11 116 298 343 308 310 315
279 278 277 277 275 281 269 275 274 254 235 238 243 257 284 301 345 129 240 69 269 241 291 298 277 276 267 252 154 153 356 190 168 138 196 160 195 210 245 243 181 227 259 309 237 322 106 36 333 300 310 298 310 315
285 282 273 270 267 258 257 256 255 249 243 243 250 262 270 280 316 142 243 313 240 282 268 260 243 268 239 235 228 224 215 226 172 322 138 103 237 174 218 222 277 191 181 254 271 179 250 254 186 94 346 336 324 327
274 282 287 283 273 259 247 238 261 257 251 241 247 244 247 260 264 189 261 137 324 310 282 279 327 288 340 232 210 210 98 84 81 217 203 197 216 202 218 312 249 303 178 225 259 276 287 264 208 329 328 324 327 335
270 273 275 274 284 281 256 227 223 257 263 250 248 242 235 230 216 175 241 220 230 269 300 289 301 273 281 236 220 198 209 168 218 203 200 211 178 194 189 241 243 197 231 237 264 306 265 282 313 316 315 313 313 318
269 271 268 264 263 274 282 239 232 236 248 257 255 242 245 221 141 248 238 171 195 199 277 289 348 284 343 200 200 208 214 192 206 202 209 218 222 219 226 236 230 211 235 244 248 294 258 276 296 302 298 300 301 318
261 269 288 292 257 250 243 253 264 246 243 244 249 253 249 200 158 220 336 104 155 188 227 287 290 269 308 153 125 144 181 185 214 197 221 232 200 202 244 245 230 226 227 238 246 265 266 271 285 320 285 303 305 320
260 264 267 274 297 256 213 239 255 260 258 257 263 288 299 182 224 251 229 208 158 187 254 275 274 278 24 170 160 162 150 187 194 232 229 225 163 212 249 240 246 248 251 266 263 240 256 279 291 304 286 327 321 345
260 266 281 284 292 286 224 226 247 234 220 223 250 230 108 207 222 219 168 150 144 313 238 226 258 127 358 48 164 164 205 179 134 224 219 187 199 220 236 246 239 227 224 247 250 261 272 280 304 53 18 353 337 342
243 241 209 254 266 285 216 226 258 225 208 240 145 152 192 204 195 136 164 113 161 216 228 251 272 246 310 12 105 276 228 250 228 208 136 227 246 255 251 251 240 213 214 232 274 292 324 358 26 14 3 343 332 330
212 217 224 235 241 236 223 194 168 181 140 171 164 198 273 299 196 201 170 169 155 213 204 234 224 243 143 242 251 330 328 206 248 186 242 244 251 272 20 150 167 188 185 103 95 81 52 20 357 343 339 338 328 324
231 226 239 241 238 221 241 200 195 155 190 179 137 109 221 216 207 196 190 157 195 219 186 193 184 196 176 193 213 177 244 196 247 139 237 237 242 105 124 119 111 108 107 94 75 66 32 14 5 350 337 330 326 325
224 213 235 252 216 221 198 191 202 153 143 77 150 189 223 188 231 217 168 184 194 191 176 173 161 156 155 217 212 214 221 220 143 218 241 262 72 153 138 132 129 120 113 109 98 61 18 358 345 345 340 331 316 311
212 238 251 256 223 205 174 207 181 169 95 178 166 197 234 195 243 227 257 107 128 121 156 166 129 173 173 172 204 229 209 244 228 226 232 132 189 156 159 137 122 135 112 79 74 22 354 343 338 332 331 327 315 306
221 194 183 203 275 200 175 185 170 83 97 196 184 219 221 248 274 27 99 305 139 143 147 165 187 177 133 206 209 253 204 227 234 239 357 6 44 137 171 205 7 7 260 273 3 346 340 344 340 336 336 323 315 308
214 195 186 184 211 190 171 187 98 113 113 256 238 250 222 245 222 192 195 185 144 121 141 212 151 162 201 209 205 221 226 211 104 347 348 348 19 92 234 276 304 294 246 242 242 285 322 343 346 337 325 326 326 320
113 172 180 131 82 165 136 96 91 125 186 219 236 237 254 281 254 168 225 240 167 173 143 177 200 191 134 218 224 210 242 51 344 334 330 330 326 323 308 292 286 283 274 254 239 243 278 259 297 334 341 339 318 313
23 242 209 169 141 113 48 97 114 172 234 225 237 215 201 234 221 215 202 176 185 175 178 207 168 221 229 211 198 199 182 306 229 7 4 351 336 318 287 282 294 296 286 253 246 276 272 276 301 279 283 300 312 327
153 124 83 136 138 122 119 147 189 243 230 227 238 235 225 231 226 234 237 208 204 152 251 202 215 215 226 237 200 148 136 168 312 336 307 323 316 301 294 289 279 270 251 229 236 265 274 274 262 274 269 276 294 317
141 129 152 176 139 121 169 164 239 258 252 236 232 231 223 230 240 209 207 202 198 205 210 219 216 229 219 229 233 207 147 278 296 321 321 323 322 315 309 299 285 279 240 227 255 258 278 285 269 265 265 265 299 310
135 77 129 112 144 254 302 188 216 226 257 249 253 214 239 211 225 218 215 170 187 211 218 218 229 237 235 251 254 259 279 273 280 277 285 296 303 306 297 290 268 247 238 230 253 299 272 287 295 284 265 281 291 306
117 109 122 145 166 194 255 211 258 260 230 240 231 208 234 229 227 213 156 189 220 218 214 216 225 238 234 239 245 233 249 262 265 268 253 259 267 278 276 285 255 259 243 239 283 323 321 341 223 258 273 280 306 3
136 138 114 147 209 225 255 165 229 207 238 238 214 211 219 205 211 145 199 209 225 218 219 219 227 233 239 247 250 256 247 244 255 258 260 258 257 265 265 266 251 261 247 230 161 232 290 150 177 237 232 256 338 105
267 187 219 221 205 261 220 226 220 245 239 227 232 229 226 179 139 213 229 192 197 196 206 215 219 229 232 230 237 248 251 234 245 252 250 253 267 271 259 258 254 240 234 217 118 205 166 172 163 206 167 224 162 139
235 223 234 237 217 239 242 236 221 227 254 235 249 235 151 157 147 175 338 32 321 320 266 188 201 233 242 244 250 250 238 229 247 262 268 251 265 276 262 235 213 225 195 186 169 200 173 159 185 186 178 178 147 134
249 205 200 228 216 225 243 263 273 302 302 282 349 341 338 62 61 23 351 322 288 261 250 246 228 227 236 243 259 260 265 197 252 265 274 252 239 243 253 200 199 214 190 189 174 178 168 169 171 176 157 143 137 136
282 275 219 237 261 265 271 260 254 265 328 12 12 1 13 39 31 358 315 322 271 262 257 214 209 229 256 286 289 270 272 265 236 260 307 309 142 203 257 315 289 245 147 167 162 172 168 170 171 164 152 142 148 144
282 265 261 243 246 233 275 288 350 18 10 4 41 28 46 22 0 326 299 322 356 12 33 40 44 84 267 245 240 307 280 265 280 258 199 68 35 29 353 9 32 114 132 152 153 141 150 163 163 153 151 144 132 140
257 259 280 293 272 224 25 24 39 24 348 20 52 42 50 5 354 359 359 5 351 25 38 31 20 2 359 344 342 347 348 324 262 193 197 180 184 92 69 103 109 103 104 96 62 97 127 135 142 142 139 130 121 134
268 197 291 307 10 40 21 56 85 75 66 80 100 111 89 62 35 10 2 6 17 20 14 26 25 14 16 4 356 352 346 359 2 39 150 129 109 111 104 107 114 116 118 117 113 107 102 115 117 127 127 120 123 132
296 285 91 27 53 13 76 72 105 109 115 71 360 86 84 124 106 31 16 12 18 22 17 21 13 9 5 5 357 348 355 1 6 20 63 92 108 115 112 111 113 121 125 124 127 126 132 130 137 141 137 131 129 140
298 340 360 77 86 148 163 185 209 54 83 68 61 54 39 41 48 58 2 5 13 17 15 9 5 358 352 1 1 4 314 323 342 9 73 100 100 106 112 116 120 121 125 127 123 130 138 132 133 132 136 139 135 141
295 346 89 120 142 161 118 119 97 92 64 60 46 23 46 38 71 11 33 25 14 1 356 354 349 351 353 17 6 358 354 354 36 48 78 101 103 104 109 113 121 122 113 113 115 123 129 134 136 135 141 149 142 138